Time,TemperatureF,DewpointF,PressureIn,WindDirection,WindDirectionDegrees,WindSpeedMPH,WindSpeedGustMPH,Humidity,HourlyPrecipIn,Conditions,Clouds,dailyrainin,SoftwareType,DateUTC
2013-03-17 00:01:00,59.8,0.0,0.00,SE,134,2.6,4.0,0,0.00,,,0.00,WUHU216PEETBRO,2013-03-17 05:01:00,
2013-03-17 00:06:00,59.3,0.0,0.00,SSW,203,1.9,3.9,0,0.00,,,0.00,WUHU216PEETBRO,2013-03-17 05:06:00,
2013-03-17 00:11:00,59.4,0.0,0.00,SW,231,2.8,4.6,0,0.00,,,0.00,WUHU216PEETBRO,2013-03-17 05:11:00,
2013-03-17 00:16:00,59.7,0.0,0.00,SW,227,2.8,4.7,0,0.00,,,0.00,WUHU216PEETBRO,2013-03-17 05:16:00,
2013-03-17 00:21:00,59.6,0.0,0.00,WSW,238,3.6,5.3,0,0.00,,,0.00,WUHU216PEETBRO,2013-03-17 05:21:00,
2013-03-17 00:26:00,59.4,0.0,0.00,WSW,237,4.2,5.3,0,0.00,,,0.00,WUHU216PEETBRO,2013-03-17 05:26:00,
2013-03-17 00:31:00,59.5,0.0,0.00,WSW,238,4.7,7.3,0,0.00,,,0.00,WUHU216PEETBRO,2013-03-17 05:31:00,
2013-03-17 00:36:00,58.9,0.0,0.00,WSW,242,3.0,8.4,0,0.00,,,0.00,WUHU216PEETBRO,2013-03-17 05:36:00,
2013-03-17 00:41:00,59.1,0.0,0.00,SSW,193,3.4,8.4,0,0.00,,,0.00,WUHU216PEETBRO,2013-03-17 05:41:00,
2013-03-17 00:46:00,59.4,0.0,0.00,SW,215,2.9,6.0,0,0.00,,,0.00,WUHU216PEETBRO,2013-03-17 05:46:00,
2013-03-17 00:51:00,59.7,0.0,0.00,SW,234,3.2,5.2,0,0.00,,,0.00,WUHU216PEETBRO,2013-03-17 05:51:00,
2013-03-17 00:56:00,59.1,0.0,0.00,SW,234,3.4,5.2,0,0.00,,,0.00,WUHU216PEETBRO,2013-03-17 05:56:00,
2013-03-17 01:01:00,59.4,0.0,0.00,SW,215,2.9,5.7,0,0.00,,,0.00,WUHU216PEETBRO,2013-03-17 06:01:00,
2013-03-17 01:06:00,59.4,0.0,0.00,WSW,242,3.8,5.7,0,0.00,,,0.00,WUHU216PEETBRO,2013-03-17 06:06:00,
2013-03-17 01:11:00,59.3,0.0,0.00,WSW,237,2.4,5.7,0,0.00,,,0.00,WUHU216PEETBRO,2013-03-17 06:11:00,
2013-03-17 01:16:00,59.1,0.0,0.00,SW,220,3.7,5.7,0,0.00,,,0.00,WUHU216PEETBRO,2013-03-17 06:16:00,
2013-03-17 01:21:00,59.3,0.0,0.00,SSW,203,3.1,7.1,0,0.00,,,0.00,WUHU216PEETBRO,2013-03-17 06:21:00,
2013-03-17 01:26:00,59.2,0.0,0.00,SSE,162,3.0,7.1,0,0.00,,,0.00,WUHU216PEETBRO,2013-03-17 06:26:00,
2013-03-17 01:31:00,59.1,0.0,0.00,SW,223,1.4,5.4,0,0.00,,,0.00,WUHU216PEETBRO,2013-03-17 06:31:00,
2013-03-17 01:36:00,58.7,0.0,0.00,SW,227,3.1,5.3,0,0.00,,,0.00,WUHU216PEETBRO,2013-03-17 06:36:00,
2013-03-17 01:41:00,58.8,0.0,0.00,WSW,256,2.7,5.7,0,0.00,,,0.00,WUHU216PEETBRO,2013-03-17 06:41:00,
2013-03-17 01:46:00,59.1,0.0,0.00,SW,221,4.2,6.4,0,0.00,,,0.00,WUHU216PEETBRO,2013-03-17 06:46:00,
2013-03-17 01:51:00,58.8,0.0,0.00,SW,228,3.3,6.4,0,0.00,,,0.00,WUHU216PEETBRO,2013-03-17 06:51:00,
2013-03-17 01:56:00,58.8,0.0,0.00,WSW,251,3.8,6.3,0,0.00,,,0.00,WUHU216PEETBRO,2013-03-17 06:56:00,
2013-03-17 02:01:00,58.8,0.0,0.00,WSW,245,3.7,5.5,0,0.00,,,0.00,WUHU216PEETBRO,2013-03-17 07:01:00,
2013-03-17 02:06:00,59.1,0.0,0.00,WSW,241,1.7,5.5,0,0.00,,,0.00,WUHU216PEETBRO,2013-03-17 07:06:00,
2013-03-17 02:11:00,58.5,0.0,0.00,South,169,1.8,4.9,0,0.00,,,0.00,WUHU216PEETBRO,2013-03-17 07:11:00,
2013-03-17 02:16:00,58.0,0.0,0.00,SSW,194,0.0,4.3,0,0.00,,,0.00,WUHU216PEETBRO,2013-03-17 07:16:00,
2013-03-17 02:21:00,58.2,0.0,0.00,SSW,194,0.0,3.9,0,0.00,,,0.00,WUHU216PEETBRO,2013-03-17 07:21:00,
2013-03-17 02:26:00,58.2,0.0,0.00,SSW,194,0.0,0.0,0,0.00,,,0.00,WUHU216PEETBRO,2013-03-17 07:26:00,
2013-03-17 02:31:00,58.0,0.0,0.00,SSW,194,0.0,0.0,0,0.00,,,0.00,WUHU216PEETBRO,2013-03-17 07:31:00,
2013-03-17 02:36:00,58.0,0.0,0.00,SSW,194,0.0,0.0,0,0.00,,,0.00,WUHU216PEETBRO,2013-03-17 07:36:00,
2013-03-17 02:41:00,57.4,0.0,0.00,SSW,194,0.0,0.0,0,0.00,,,0.00,WUHU216PEETBRO,2013-03-17 07:41:00,
2013-03-17 02:46:00,57.0,0.0,0.00,SSW,194,0.0,0.0,0,0.00,,,0.00,WUHU216PEETBRO,2013-03-17 07:46:00,
2013-03-17 02:51:00,56.1,0.0,0.00,SSW,194,0.0,0.0,0,0.00,,,0.00,WUHU216PEETBRO,2013-03-17 07:51:00,
2013-03-17 02:56:00,55.6,0.0,0.00,SSW,194,0.0,0.0,0,0.00,,,0.00,WUHU216PEETBRO,2013-03-17 07:56:00,
2013-03-17 03:01:00,55.3,0.0,0.00,SSW,194,0.0,0.0,0,0.00,,,0.00,WUHU216PEETBRO,2013-03-17 08:01:00,
2013-03-17 03:06:00,55.4,0.0,0.00,SSW,194,0.0,0.0,0,0.00,,,0.00,WUHU216PEETBRO,2013-03-17 08:06:00,
2013-03-17 03:11:00,55.0,0.0,0.00,SSW,194,0.0,0.0,0,0.00,,,0.00,WUHU216PEETBRO,2013-03-17 08:11:00,
2013-03-17 03:16:00,54.9,0.0,0.00,SSW,194,0.0,0.0,0,0.00,,,0.00,WUHU216PEETBRO,2013-03-17 08:16:00,
2013-03-17 03:22:00,54.6,0.0,0.00,SSW,194,0.0,0.0,0,0.00,,,0.00,WUHU216PEETBRO,2013-03-17 08:22:00,
2013-03-17 03:27:00,55.1,0.0,0.00,SSW,194,0.0,0.0,0,0.00,,,0.00,WUHU216PEETBRO,2013-03-17 08:27:00,
2013-03-17 03:32:00,54.9,0.0,0.00,SSW,194,0.0,0.0,0,0.00,,,0.00,WUHU216PEETBRO,2013-03-17 08:32:00,
2013-03-17 03:37:00,54.3,0.0,0.00,SSW,194,0.0,0.0,0,0.00,,,0.00,WUHU216PEETBRO,2013-03-17 08:37:00,
2013-03-17 03:42:00,54.1,0.0,0.00,SSW,194,0.0,0.0,0,0.00,,,0.00,WUHU216PEETBRO,2013-03-17 08:42:00,
2013-03-17 03:47:00,53.8,0.0,0.00,SSW,194,0.0,0.0,0,0.00,,,0.00,WUHU216PEETBRO,2013-03-17 08:47:00,
2013-03-17 03:52:00,53.5,0.0,0.00,SSW,194,0.0,0.0,0,0.00,,,0.00,WUHU216PEETBRO,2013-03-17 08:52:00,
2013-03-17 03:57:00,53.3,0.0,0.00,SSW,194,0.0,0.0,0,0.00,,,0.00,WUHU216PEETBRO,2013-03-17 08:57:00,
2013-03-17 04:02:00,53.5,0.0,0.00,SSW,194,0.0,0.0,0,0.00,,,0.00,WUHU216PEETBRO,2013-03-17 09:02:00,
2013-03-17 04:07:00,53.8,0.0,0.00,SSW,194,0.0,0.0,0,0.00,,,0.00,WUHU216PEETBRO,2013-03-17 09:07:00,
2013-03-17 04:12:00,53.8,0.0,0.00,SSW,194,0.0,0.0,0,0.00,,,0.00,WUHU216PEETBRO,2013-03-17 09:12:00,
2013-03-17 04:17:00,53.3,0.0,0.00,SSW,194,0.0,0.0,0,0.00,,,0.00,WUHU216PEETBRO,2013-03-17 09:17:00,
2013-03-17 04:22:00,53.5,0.0,0.00,SSW,194,0.0,0.0,0,0.00,,,0.00,WUHU216PEETBRO,2013-03-17 09:22:00,
2013-03-17 04:27:00,53.5,0.0,0.00,SSW,194,0.0,0.0,0,0.00,,,0.00,WUHU216PEETBRO,2013-03-17 09:27:00,
2013-03-17 04:32:00,54.6,0.0,0.00,SSW,194,0.0,0.0,0,0.00,,,0.00,WUHU216PEETBRO,2013-03-17 09:32:00,
2013-03-17 04:37:00,54.3,0.0,0.00,SSW,194,0.0,0.0,0,0.00,,,0.00,WUHU216PEETBRO,2013-03-17 09:37:00,
2013-03-17 04:42:00,53.5,0.0,0.00,SSW,194,0.0,0.0,0,0.00,,,0.00,WUHU216PEETBRO,2013-03-17 09:42:00,
2013-03-17 04:46:00,53.5,0.0,0.00,SSW,194,0.0,0.0,0,0.00,,,0.00,WUHU216PEETBRO,2013-03-17 09:46:00,
2013-03-17 04:52:00,54.1,0.0,0.00,SSW,194,0.0,0.0,0,0.00,,,0.00,WUHU216PEETBRO,2013-03-17 09:52:00,
2013-03-17 04:56:00,53.3,0.0,0.00,SSW,194,0.0,0.0,0,0.00,,,0.00,WUHU216PEETBRO,2013-03-17 09:56:00,
2013-03-17 05:01:00,54.1,0.0,0.00,SSW,194,0.0,0.0,0,0.00,,,0.00,WUHU216PEETBRO,2013-03-17 10:01:00,
2013-03-17 05:06:00,53.5,0.0,0.00,SSW,194,0.0,0.0,0,0.00,,,0.00,WUHU216PEETBRO,2013-03-17 10:06:00,
2013-03-17 05:11:00,52.9,0.0,0.00,SSW,194,0.0,0.0,0,0.00,,,0.00,WUHU216PEETBRO,2013-03-17 10:11:00,
2013-03-17 05:16:00,53.1,0.0,0.00,SSW,194,0.0,0.0,0,0.00,,,0.00,WUHU216PEETBRO,2013-03-17 10:16:00,
2013-03-17 05:21:00,53.2,0.0,0.00,SSW,194,0.0,0.0,0,0.00,,,0.00,WUHU216PEETBRO,2013-03-17 10:21:00,
2013-03-17 05:26:00,53.5,0.0,0.00,SSW,194,0.0,0.0,0,0.00,,,0.00,WUHU216PEETBRO,2013-03-17 10:26:00,
2013-03-17 05:31:00,53.3,0.0,0.00,SSW,194,0.0,0.0,0,0.00,,,0.00,WUHU216PEETBRO,2013-03-17 10:31:00,
2013-03-17 05:36:00,53.8,0.0,0.00,SSW,194,0.0,0.0,0,0.00,,,0.00,WUHU216PEETBRO,2013-03-17 10:36:00,
2013-03-17 05:41:00,54.3,0.0,0.00,SSW,194,0.0,0.0,0,0.00,,,0.00,WUHU216PEETBRO,2013-03-17 10:41:00,
2013-03-17 05:47:00,54.1,0.0,0.00,SSW,194,0.0,0.0,0,0.00,,,0.00,WUHU216PEETBRO,2013-03-17 10:47:00,
2013-03-17 05:52:00,54.9,0.0,0.00,SSW,194,0.0,0.0,0,0.00,,,0.00,WUHU216PEETBRO,2013-03-17 10:52:00,
2013-03-17 05:57:00,54.6,0.0,0.00,SSW,194,0.0,0.0,0,0.00,,,0.00,WUHU216PEETBRO,2013-03-17 10:57:00,
2013-03-17 06:02:00,54.6,0.0,0.00,SSW,194,0.0,0.0,0,0.00,,,0.00,WUHU216PEETBRO,2013-03-17 11:02:00,
2013-03-17 06:07:00,54.3,0.0,0.00,SSW,194,0.0,0.0,0,0.00,,,0.00,WUHU216PEETBRO,2013-03-17 11:07:00,
2013-03-17 06:12:00,54.3,0.0,0.00,SSW,194,0.0,0.0,0,0.00,,,0.00,WUHU216PEETBRO,2013-03-17 11:12:00,
2013-03-17 06:17:00,54.3,0.0,0.00,SSW,194,0.0,0.0,0,0.00,,,0.00,WUHU216PEETBRO,2013-03-17 11:17:00,
2013-03-17 06:22:00,55.1,0.0,0.00,SSW,194,0.0,0.0,0,0.00,,,0.00,WUHU216PEETBRO,2013-03-17 11:22:00,
2013-03-17 06:27:00,54.9,0.0,0.00,SSW,194,0.0,0.0,0,0.00,,,0.00,WUHU216PEETBRO,2013-03-17 11:27:00,
2013-03-17 06:32:00,55.7,0.0,0.00,SSW,194,0.0,0.0,0,0.00,,,0.00,WUHU216PEETBRO,2013-03-17 11:32:00,
2013-03-17 06:37:00,54.9,0.0,0.00,SSW,194,0.0,0.0,0,0.00,,,0.00,WUHU216PEETBRO,2013-03-17 11:37:00,
2013-03-17 06:42:00,55.1,0.0,0.00,SSW,194,0.0,0.0,0,0.00,,,0.00,WUHU216PEETBRO,2013-03-17 11:42:00,
2013-03-17 06:47:00,54.6,0.0,0.00,SSW,194,0.0,0.0,0,0.00,,,0.00,WUHU216PEETBRO,2013-03-17 11:47:00,
2013-03-17 06:52:00,53.5,0.0,0.00,SSW,194,0.0,0.0,0,0.00,,,0.00,WUHU216PEETBRO,2013-03-17 11:52:00,
2013-03-17 06:57:00,52.6,0.0,0.00,SSW,194,0.0,0.0,0,0.00,,,0.00,WUHU216PEETBRO,2013-03-17 11:57:00,
2013-03-17 07:01:00,52.7,0.0,0.00,SSW,194,0.0,0.0,0,0.00,,,0.00,WUHU216PEETBRO,2013-03-17 12:01:00,
2013-03-17 07:07:00,52.9,0.0,0.00,SSW,194,0.0,0.0,0,0.00,,,0.00,WUHU216PEETBRO,2013-03-17 12:07:00,
2013-03-17 07:12:00,52.9,0.0,0.00,SSW,194,0.0,0.0,0,0.00,,,0.00,WUHU216PEETBRO,2013-03-17 12:12:00,
2013-03-17 07:17:00,52.9,0.0,0.00,SSW,194,0.0,0.0,0,0.00,,,0.00,WUHU216PEETBRO,2013-03-17 12:17:00,
2013-03-17 07:22:00,53.5,0.0,0.00,SSW,194,0.0,0.0,0,0.00,,,0.00,WUHU216PEETBRO,2013-03-17 12:22:00,
2013-03-17 07:27:00,54.1,0.0,0.00,SSW,194,0.0,0.0,0,0.00,,,0.00,WUHU216PEETBRO,2013-03-17 12:27:00,
2013-03-17 07:32:00,53.5,0.0,0.00,SSW,194,0.0,0.0,0,0.00,,,0.00,WUHU216PEETBRO,2013-03-17 12:32:00,
2013-03-17 07:37:00,53.8,0.0,0.00,SSW,194,0.0,0.0,0,0.00,,,0.00,WUHU216PEETBRO,2013-03-17 12:37:00,
2013-03-17 07:42:00,54.3,0.0,0.00,SSW,194,0.0,0.0,0,0.00,,,0.00,WUHU216PEETBRO,2013-03-17 12:42:00,
2013-03-17 07:47:00,54.3,0.0,0.00,SSW,194,0.0,0.0,0,0.00,,,0.00,WUHU216PEETBRO,2013-03-17 12:47:00,
2013-03-17 07:52:00,54.3,0.0,0.00,SSW,194,0.0,0.0,0,0.00,,,0.00,WUHU216PEETBRO,2013-03-17 12:52:00,
2013-03-17 07:57:00,55.1,0.0,0.00,SSW,194,0.0,0.0,0,0.00,,,0.00,WUHU216PEETBRO,2013-03-17 12:57:00,
2013-03-17 08:02:00,55.1,0.0,0.00,SSW,194,0.0,0.0,0,0.00,,,0.00,WUHU216PEETBRO,2013-03-17 13:02:00,
2013-03-17 08:07:00,55.6,0.0,0.00,SSW,194,0.0,0.0,0,0.00,,,0.00,WUHU216PEETBRO,2013-03-17 13:07:00,
2013-03-17 08:12:00,56.4,0.0,0.00,SSW,194,0.0,0.0,0,0.00,,,0.00,WUHU216PEETBRO,2013-03-17 13:12:00,
2013-03-17 08:17:00,57.2,0.0,0.00,SSW,194,0.0,0.0,0,0.00,,,0.00,WUHU216PEETBRO,2013-03-17 13:17:00,
2013-03-17 08:22:00,58.0,0.0,0.00,SSW,194,0.0,0.0,0,0.00,,,0.00,WUHU216PEETBRO,2013-03-17 13:22:00,
2013-03-17 08:27:00,59.3,0.0,0.00,SSW,194,0.0,0.0,0,0.00,,,0.00,WUHU216PEETBRO,2013-03-17 13:27:00,
2013-03-17 08:32:00,67.7,0.0,0.00,SSW,194,0.0,0.0,0,0.00,,,0.00,WUHU216PEETBRO,2013-03-17 13:32:00,
2013-03-17 08:37:00,60.5,0.0,0.00,SSW,194,0.0,0.0,0,0.00,,,0.00,WUHU216PEETBRO,2013-03-17 13:37:00,
2013-03-17 08:42:00,60.8,0.0,0.00,SSW,194,0.0,0.0,0,0.00,,,0.00,WUHU216PEETBRO,2013-03-17 13:42:00,
2013-03-17 08:47:00,60.8,0.0,0.00,SSW,194,0.0,0.0,0,0.00,,,0.00,WUHU216PEETBRO,2013-03-17 13:47:00,
2013-03-17 08:52:00,60.8,0.0,0.00,SSW,194,0.0,0.0,0,0.00,,,0.00,WUHU216PEETBRO,2013-03-17 13:52:00,
2013-03-17 08:57:00,61.6,0.0,0.00,SSW,194,0.0,0.0,0,0.00,,,0.00,WUHU216PEETBRO,2013-03-17 13:57:00,
2013-03-17 09:02:00,62.5,0.0,0.00,SE,132,1.3,2.1,0,0.00,,,0.00,WUHU216PEETBRO,2013-03-17 14:02:00,
2013-03-17 09:07:00,63.6,0.0,0.00,NE,45,0.0,3.6,0,0.00,,,0.00,WUHU216PEETBRO,2013-03-17 14:07:00,
2013-03-17 09:12:00,61.9,0.0,0.00,East,79,1.6,3.9,0,0.00,,,0.00,WUHU216PEETBRO,2013-03-17 14:12:00,
2013-03-17 09:17:00,63.6,0.0,0.00,ENE,71,0.5,3.9,0,0.00,,,0.00,WUHU216PEETBRO,2013-03-17 14:17:00,
2013-03-17 09:22:00,63.9,0.0,0.00,SSE,162,0.0,2.7,0,0.00,,,0.00,WUHU216PEETBRO,2013-03-17 14:22:00,
2013-03-17 09:27:00,64.5,0.0,0.00,NNE,18,0.0,2.7,0,0.00,,,0.00,WUHU216PEETBRO,2013-03-17 14:27:00,
2013-03-17 09:32:00,66.8,0.0,0.00,NNE,18,0.0,1.8,0,0.00,,,0.00,WUHU216PEETBRO,2013-03-17 14:32:00,
2013-03-17 09:37:00,66.8,0.0,0.00,South,184,0.3,3.9,0,0.00,,,0.00,WUHU216PEETBRO,2013-03-17 14:37:00,
2013-03-17 09:42:00,65.4,0.0,0.00,SSW,197,3.6,4.8,0,0.00,,,0.00,WUHU216PEETBRO,2013-03-17 14:42:00,
2013-03-17 09:47:00,65.0,0.0,0.00,ESE,115,4.1,7.6,0,0.00,,,0.00,WUHU216PEETBRO,2013-03-17 14:47:00,
2013-03-17 09:52:00,65.0,0.0,0.00,SE,128,3.1,7.6,0,0.00,,,0.00,WUHU216PEETBRO,2013-03-17 14:52:00,
2013-03-17 09:57:00,65.6,0.0,0.00,SSW,207,3.2,6.7,0,0.00,,,0.00,WUHU216PEETBRO,2013-03-17 14:57:00,
2013-03-17 10:02:00,64.7,0.0,0.00,SSE,149,3.0,6.3,0,0.00,,,0.00,WUHU216PEETBRO,2013-03-17 15:02:00,
2013-03-17 10:07:00,64.7,0.0,0.00,SSE,167,4.2,7.9,0,0.00,,,0.00,WUHU216PEETBRO,2013-03-17 15:07:00,
2013-03-17 10:12:00,64.7,0.0,0.00,ENE,77,1.6,7.9,0,0.00,,,0.00,WUHU216PEETBRO,2013-03-17 15:12:00,
2013-03-17 10:17:00,65.6,0.0,0.00,SSE,151,2.5,6.1,0,0.00,,,0.00,WUHU216PEETBRO,2013-03-17 15:17:00,
2013-03-17 10:22:00,66.4,0.0,0.00,SSE,158,2.7,6.2,0,0.00,,,0.00,WUHU216PEETBRO,2013-03-17 15:22:00,
2013-03-17 10:27:00,67.3,0.0,0.00,SE,128,4.0,7.0,0,0.00,,,0.00,WUHU216PEETBRO,2013-03-17 15:27:00,
2013-03-17 10:32:00,67.9,0.0,0.00,SSW,193,0.0,7.6,0,0.00,,,0.00,WUHU216PEETBRO,2013-03-17 15:32:00,
2013-03-17 10:37:00,68.7,0.0,0.00,South,183,3.9,7.6,0,0.00,,,0.00,WUHU216PEETBRO,2013-03-17 15:37:00,
2013-03-17 10:42:00,68.9,0.0,0.00,SSE,167,2.3,4.8,0,0.00,,,0.00,WUHU216PEETBRO,2013-03-17 15:42:00,
2013-03-17 10:47:00,68.4,0.0,0.00,South,190,3.5,6.7,0,0.00,,,0.00,WUHU216PEETBRO,2013-03-17 15:47:00,
2013-03-17 10:52:00,68.3,0.0,0.00,ENE,66,1.1,8.4,0,0.00,,,0.00,WUHU216PEETBRO,2013-03-17 15:52:00,
2013-03-17 10:57:00,68.7,0.0,0.00,SSW,197,2.5,8.4,0,0.00,,,0.00,WUHU216PEETBRO,2013-03-17 15:57:00,
2013-03-17 11:02:00,69.5,0.0,0.00,South,183,2.8,7.7,0,0.00,,,0.00,WUHU216PEETBRO,2013-03-17 16:02:00,
2013-03-17 11:07:00,69.3,0.0,0.00,SSW,207,2.4,6.5,0,0.00,,,0.00,WUHU216PEETBRO,2013-03-17 16:07:00,
2013-03-17 11:12:00,68.6,0.0,0.00,SSW,208,7.2,7.2,0,0.00,,,0.00,WUHU216PEETBRO,2013-03-17 16:12:00,
2013-03-17 11:17:00,70.5,0.0,0.00,SW,221,7.2,9.5,0,0.00,,,0.00,WUHU216PEETBRO,2013-03-17 16:17:00,
2013-03-17 11:22:00,70.3,0.0,0.00,SW,228,2.7,9.5,0,0.00,,,0.00,WUHU216PEETBRO,2013-03-17 16:22:00,
2013-03-17 11:27:00,69.5,0.0,0.00,South,187,7.3,10.2,0,0.00,,,0.00,WUHU216PEETBRO,2013-03-17 16:27:00,
2013-03-17 11:32:00,70.0,0.0,0.00,South,177,4.3,10.2,0,0.00,,,0.00,WUHU216PEETBRO,2013-03-17 16:32:00,
2013-03-17 11:37:00,73.0,0.0,0.00,SW,231,5.2,9.6,0,0.00,,,0.00,WUHU216PEETBRO,2013-03-17 16:37:00,
2013-03-17 11:42:00,73.3,0.0,0.00,WSW,244,4.5,9.6,0,0.00,,,0.00,WUHU216PEETBRO,2013-03-17 16:42:00,
2013-03-17 11:47:00,72.0,0.0,0.00,WSW,251,6.0,8.3,0,0.00,,,0.00,WUHU216PEETBRO,2013-03-17 16:47:00,
2013-03-17 11:52:00,73.6,0.0,0.00,WSW,256,3.0,7.7,0,0.00,,,0.00,WUHU216PEETBRO,2013-03-17 16:52:00,
2013-03-17 11:57:00,74.9,0.0,0.00,SW,232,3.2,11.3,0,0.00,,,0.00,WUHU216PEETBRO,2013-03-17 16:57:00,
2013-03-17 12:02:00,73.6,0.0,0.00,SSW,207,6.3,11.3,0,0.00,,,0.00,WUHU216PEETBRO,2013-03-17 17:02:00,
2013-03-17 12:07:00,78.9,0.0,0.00,WSW,237,7.1,10.9,0,0.00,,,0.00,WUHU216PEETBRO,2013-03-17 17:07:00,
2013-03-17 12:12:00,80.6,0.0,0.00,SSW,200,8.8,11.9,0,0.00,,,0.00,WUHU216PEETBRO,2013-03-17 17:12:00,
2013-03-17 12:17:00,80.6,0.0,0.00,SW,235,7.5,14.0,0,0.00,,,0.00,WUHU216PEETBRO,2013-03-17 17:17:00,
2013-03-17 12:22:00,84.3,0.0,0.00,WSW,242,5.7,14.2,0,0.00,,,0.00,WUHU216PEETBRO,2013-03-17 17:22:00,
2013-03-17 12:27:00,84.3,0.0,0.00,WSW,251,8.7,14.2,0,0.00,,,0.00,WUHU216PEETBRO,2013-03-17 17:27:00,
2013-03-17 12:32:00,85.5,0.0,0.00,South,176,4.3,13.6,0,0.00,,,0.00,WUHU216PEETBRO,2013-03-17 17:32:00,
2013-03-17 12:37:00,82.1,0.0,0.00,SSE,165,9.1,10.9,0,0.00,,,0.00,WUHU216PEETBRO,2013-03-17 17:37:00,
2013-03-17 12:42:00,79.4,0.0,0.00,SW,217,8.3,10.9,0,0.00,,,0.00,WUHU216PEETBRO,2013-03-17 17:42:00,
2013-03-17 12:47:00,79.0,0.0,0.00,SW,225,3.2,9.9,0,0.00,,,0.00,WUHU216PEETBRO,2013-03-17 17:47:00,
2013-03-17 12:52:00,79.8,0.0,0.00,SSW,201,8.6,11.2,0,0.00,,,0.00,WUHU216PEETBRO,2013-03-17 17:52:00,
2013-03-17 12:57:00,79.3,0.0,0.00,WSW,258,2.9,11.2,0,0.00,,,0.00,WUHU216PEETBRO,2013-03-17 17:57:00,
2013-03-17 13:02:00,79.5,0.0,0.00,West,268,4.9,13.1,0,0.00,,,0.00,WUHU216PEETBRO,2013-03-17 18:02:00,
2013-03-17 13:07:00,81.5,0.0,0.00,SW,220,5.8,13.1,0,0.00,,,0.00,WUHU216PEETBRO,2013-03-17 18:07:00,
2013-03-17 13:12:00,80.2,0.0,0.00,WNW,299,4.2,12.6,0,0.00,,,0.00,WUHU216PEETBRO,2013-03-17 18:12:00,
2013-03-17 13:17:00,84.6,0.0,0.00,ESE,119,5.8,12.6,0,0.00,,,0.00,WUHU216PEETBRO,2013-03-17 18:17:00,
2013-03-17 13:22:00,85.0,0.0,0.00,SW,224,9.5,14.2,0,0.00,,,0.00,WUHU216PEETBRO,2013-03-17 18:22:00,
2013-03-17 13:27:00,85.2,0.0,0.00,SSW,199,12.1,17.6,0,0.00,,,0.00,WUHU216PEETBRO,2013-03-17 18:27:00,
2013-03-17 13:32:00,81.5,0.0,0.00,SSW,193,10.9,17.6,0,0.00,,,0.00,WUHU216PEETBRO,2013-03-17 18:32:00,
2013-03-17 13:37:00,83.5,0.0,0.00,WSW,244,4.9,16.3,0,0.00,,,0.00,WUHU216PEETBRO,2013-03-17 18:37:00,
2013-03-17 13:42:00,82.4,0.0,0.00,WSW,249,9.6,12.6,0,0.00,,,0.00,WUHU216PEETBRO,2013-03-17 18:42:00,
2013-03-17 13:47:00,84.6,0.0,0.00,South,170,5.4,14.2,0,0.00,,,0.00,WUHU216PEETBRO,2013-03-17 18:47:00,
2013-03-17 13:52:00,87.7,0.0,0.00,SSE,159,8.8,14.2,0,0.00,,,0.00,WUHU216PEETBRO,2013-03-17 18:52:00,
2013-03-17 13:57:00,80.5,0.0,0.00,SW,227,5.3,12.0,0,0.00,,,0.00,WUHU216PEETBRO,2013-03-17 18:57:00,
2013-03-17 14:02:00,86.9,0.0,0.00,WSW,258,5.1,12.0,0,0.00,,,0.00,WUHU216PEETBRO,2013-03-17 19:02:00,
2013-03-17 14:07:00,81.5,0.0,0.00,NW,307,3.2,14.2,0,0.00,,,0.00,WUHU216PEETBRO,2013-03-17 19:07:00,
2013-03-17 14:12:00,81.5,0.0,0.00,WSW,242,9.9,15.8,0,0.00,,,0.00,WUHU216PEETBRO,2013-03-17 19:12:00,
2013-03-17 14:17:00,83.9,0.0,0.00,SSE,156,4.5,15.8,0,0.00,,,0.00,WUHU216PEETBRO,2013-03-17 19:17:00,
2013-03-17 14:22:00,83.5,0.0,0.00,SSW,200,8.5,13.3,0,0.00,,,0.00,WUHU216PEETBRO,2013-03-17 19:22:00,
2013-03-17 14:27:00,81.5,0.0,0.00,South,175,8.1,14.9,0,0.00,,,0.00,WUHU216PEETBRO,2013-03-17 19:27:00,
2013-03-17 14:32:00,82.1,0.0,0.00,South,184,7.6,14.9,0,0.00,,,0.00,WUHU216PEETBRO,2013-03-17 19:32:00,
2013-03-17 14:37:00,83.5,0.0,0.00,SW,227,8.1,13.5,0,0.00,,,0.00,WUHU216PEETBRO,2013-03-17 19:37:00,
2013-03-17 14:42:00,86.6,0.0,0.00,WSW,242,2.9,11.0,0,0.00,,,0.00,WUHU216PEETBRO,2013-03-17 19:42:00,
2013-03-17 14:47:00,80.5,0.0,0.00,SE,139,7.9,13.1,0,0.00,,,0.00,WUHU216PEETBRO,2013-03-17 19:47:00,
2013-03-17 14:52:00,80.5,0.0,0.00,WNW,302,3.5,16.2,0,0.00,,,0.00,WUHU216PEETBRO,2013-03-17 19:52:00,
2013-03-17 14:57:00,78.1,0.0,0.00,South,169,7.5,16.2,0,0.00,,,0.00,WUHU216PEETBRO,2013-03-17 19:57:00,
2013-03-17 15:02:00,80.5,0.0,0.00,SE,139,11.7,17.7,0,0.00,,,0.00,WUHU216PEETBRO,2013-03-17 20:02:00,
2013-03-17 15:07:00,78.1,0.0,0.00,SSW,197,17.6,17.7,0,0.00,,,0.00,WUHU216PEETBRO,2013-03-17 20:07:00,
2013-03-17 15:12:00,74.9,0.0,0.00,SW,218,6.5,18.4,0,0.00,,,0.00,WUHU216PEETBRO,2013-03-17 20:12:00,
2013-03-17 15:17:00,74.0,0.0,0.00,SW,230,4.3,19.9,0,0.00,,,0.00,WUHU216PEETBRO,2013-03-17 20:17:00,
2013-03-17 15:22:00,81.1,0.0,0.00,SSW,194,13.4,19.9,0,0.00,,,0.00,WUHU216PEETBRO,2013-03-17 20:22:00,
2013-03-17 15:27:00,80.2,0.0,0.00,WSW,248,9.4,14.7,0,0.00,,,0.00,WUHU216PEETBRO,2013-03-17 20:27:00,
2013-03-17 15:31:00,82.4,0.0,0.00,SW,235,8.6,14.5,0,0.00,,,0.00,WUHU216PEETBRO,2013-03-17 20:31:00,
2013-03-17 15:37:00,79.9,0.0,0.00,SSE,158,5.3,14.8,0,0.00,,,0.00,WUHU216PEETBRO,2013-03-17 20:37:00,
2013-03-17 15:42:00,81.1,0.0,0.00,West,269,7.5,19.0,0,0.00,,,0.00,WUHU216PEETBRO,2013-03-17 20:42:00,
2013-03-17 15:47:00,79.4,0.0,0.00,SW,228,7.7,19.0,0,0.00,,,0.00,WUHU216PEETBRO,2013-03-17 20:47:00,
2013-03-17 15:52:00,78.9,0.0,0.00,SSW,201,11.6,21.4,0,0.00,,,0.00,WUHU216PEETBRO,2013-03-17 20:52:00,
2013-03-17 15:57:00,80.1,0.0,0.00,SE,146,8.1,21.4,0,0.00,,,0.00,WUHU216PEETBRO,2013-03-17 20:57:00,
2013-03-17 16:02:00,80.5,0.0,0.00,SW,223,12.8,16.7,0,0.00,,,0.00,WUHU216PEETBRO,2013-03-17 21:02:00,
2013-03-17 16:07:00,77.9,0.0,0.00,WSW,241,5.2,19.6,0,0.00,,,0.00,WUHU216PEETBRO,2013-03-17 21:07:00,
2013-03-17 16:12:00,77.9,0.0,0.00,NE,39,5.7,19.6,0,0.00,,,0.00,WUHU216PEETBRO,2013-03-17 21:12:00,
2013-03-17 16:17:00,77.9,0.0,0.00,NW,321,6.9,15.6,0,0.00,,,0.00,WUHU216PEETBRO,2013-03-17 21:17:00,
2013-03-17 16:22:00,76.5,0.0,0.00,SW,225,8.8,15.8,0,0.00,,,0.00,WUHU216PEETBRO,2013-03-17 21:22:00,
2013-03-17 16:27:00,81.4,0.0,0.00,SSW,207,6.9,15.8,0,0.00,,,0.00,WUHU216PEETBRO,2013-03-17 21:27:00,
2013-03-17 16:32:00,81.7,0.0,0.00,SW,223,7.0,15.5,0,0.00,,,0.00,WUHU216PEETBRO,2013-03-17 21:32:00,
2013-03-17 16:37:00,79.5,0.0,0.00,West,263,8.1,17.1,0,0.00,,,0.00,WUHU216PEETBRO,2013-03-17 21:37:00,
2013-03-17 16:42:00,78.8,0.0,0.00,SW,223,15.3,18.1,0,0.00,,,0.00,WUHU216PEETBRO,2013-03-17 21:42:00,
2013-03-17 16:47:00,82.1,0.0,0.00,WSW,241,10.1,18.1,0,0.00,,,0.00,WUHU216PEETBRO,2013-03-17 21:47:00,
2013-03-17 16:52:00,81.5,0.0,0.00,West,278,7.9,19.1,0,0.00,,,0.00,WUHU216PEETBRO,2013-03-17 21:52:00,
2013-03-17 16:57:00,79.5,0.0,0.00,WSW,239,8.8,19.1,0,0.00,,,0.00,WUHU216PEETBRO,2013-03-17 21:57:00,
2013-03-17 17:02:00,80.5,0.0,0.00,SW,224,5.8,18.6,0,0.00,,,0.00,WUHU216PEETBRO,2013-03-17 22:02:00,
2013-03-17 17:07:00,80.5,0.0,0.00,SSW,211,14.7,14.7,0,0.00,,,0.00,WUHU216PEETBRO,2013-03-17 22:07:00,
2013-03-17 17:12:00,78.9,0.0,0.00,SW,221,13.2,19.8,0,0.00,,,0.00,WUHU216PEETBRO,2013-03-17 22:12:00,
2013-03-17 17:17:00,81.7,0.0,0.00,SE,143,9.8,19.8,0,0.00,,,0.00,WUHU216PEETBRO,2013-03-17 22:17:00,
2013-03-17 17:22:00,79.5,0.0,0.00,East,93,9.4,17.8,0,0.00,,,0.00,WUHU216PEETBRO,2013-03-17 22:22:00,
2013-03-17 17:27:00,77.9,0.0,0.00,SW,220,9.2,17.8,0,0.00,,,0.00,WUHU216PEETBRO,2013-03-17 22:27:00,
2013-03-17 17:32:00,76.8,0.0,0.00,SSW,194,9.4,21.5,0,0.00,,,0.00,WUHU216PEETBRO,2013-03-17 22:32:00,
2013-03-17 17:37:00,75.9,0.0,0.00,WSW,239,6.3,21.5,0,0.00,,,0.00,WUHU216PEETBRO,2013-03-17 22:37:00,
2013-03-17 17:42:00,75.5,0.0,0.00,WSW,256,7.6,16.7,0,0.00,,,0.00,WUHU216PEETBRO,2013-03-17 22:42:00,
2013-03-17 17:47:00,75.2,0.0,0.00,WNW,289,6.1,16.9,0,0.00,,,0.00,WUHU216PEETBRO,2013-03-17 22:47:00,
2013-03-17 17:52:00,77.9,0.0,0.00,SW,221,8.0,16.9,0,0.00,,,0.00,WUHU216PEETBRO,2013-03-17 22:52:00,
2013-03-17 17:56:00,77.9,0.0,0.00,SSW,211,6.8,16.2,0,0.00,,,0.00,WUHU216PEETBRO,2013-03-17 22:56:00,
2013-03-17 18:01:00,77.9,0.0,0.00,WSW,238,7.1,16.2,0,0.00,,,0.00,WUHU216PEETBRO,2013-03-17 23:01:00,
2013-03-17 18:06:00,78.9,0.0,0.00,SW,218,4.0,13.9,0,0.00,,,0.00,WUHU216PEETBRO,2013-03-17 23:06:00,
2013-03-17 18:11:00,79.2,0.0,0.00,WSW,244,8.9,13.9,0,0.00,,,0.00,WUHU216PEETBRO,2013-03-17 23:11:00,
2013-03-17 18:16:00,76.2,0.0,0.00,SSW,199,7.5,14.4,0,0.00,,,0.00,WUHU216PEETBRO,2013-03-17 23:16:00,
2013-03-17 18:21:00,74.6,0.0,0.00,SW,230,6.0,14.4,0,0.00,,,0.00,WUHU216PEETBRO,2013-03-17 23:21:00,
2013-03-17 18:26:00,73.6,0.0,0.00,SW,225,8.5,12.9,0,0.00,,,0.00,WUHU216PEETBRO,2013-03-17 23:26:00,
2013-03-17 18:31:00,73.9,0.0,0.00,SSW,203,6.6,13.2,0,0.00,,,0.00,WUHU216PEETBRO,2013-03-17 23:31:00,
2013-03-17 18:36:00,73.3,0.0,0.00,WSW,244,6.5,13.2,0,0.00,,,0.00,WUHU216PEETBRO,2013-03-17 23:36:00,
2013-03-17 18:41:00,73.6,0.0,0.00,WNW,299,5.0,11.8,0,0.00,,,0.00,WUHU216PEETBRO,2013-03-17 23:41:00,
2013-03-17 18:46:00,73.3,0.0,0.00,WSW,258,7.5,11.8,0,0.00,,,0.00,WUHU216PEETBRO,2013-03-17 23:46:00,
2013-03-17 18:51:00,73.3,0.0,0.00,SSE,156,6.1,10.7,0,0.00,,,0.00,WUHU216PEETBRO,2013-03-17 23:51:00,
2013-03-17 18:56:00,72.6,0.0,0.00,WSW,238,3.9,13.7,0,0.00,,,0.00,WUHU216PEETBRO,2013-03-17 23:56:00,
2013-03-17 19:01:00,72.3,0.0,0.00,SW,220,6.4,13.7,0,0.00,,,0.00,WUHU216PEETBRO,2013-03-18 00:01:00,
2013-03-17 19:06:00,71.7,0.0,0.00,SSW,200,7.0,11.1,0,0.00,,,0.00,WUHU216PEETBRO,2013-03-18 00:06:00,
2013-03-17 19:11:00,72.0,0.0,0.00,WSW,244,5.6,14.0,0,0.00,,,0.00,WUHU216PEETBRO,2013-03-18 00:11:00,
2013-03-17 19:16:00,72.3,0.0,0.00,SW,225,5.6,14.0,0,0.00,,,0.00,WUHU216PEETBRO,2013-03-18 00:16:00,
2013-03-17 19:21:00,71.7,0.0,0.00,SW,230,9.0,11.1,0,0.00,,,0.00,WUHU216PEETBRO,2013-03-18 00:21:00,
2013-03-17 19:26:00,71.4,0.0,0.00,SSE,152,4.2,12.4,0,0.00,,,0.00,WUHU216PEETBRO,2013-03-18 00:26:00,
2013-03-17 19:31:00,71.7,0.0,0.00,West,263,7.9,11.1,0,0.00,,,0.00,WUHU216PEETBRO,2013-03-18 00:31:00,
2013-03-17 19:36:00,70.8,0.0,0.00,WSW,241,4.5,10.4,0,0.00,,,0.00,WUHU216PEETBRO,2013-03-18 00:36:00,
2013-03-17 19:41:00,70.8,0.0,0.00,South,176,4.8,10.4,0,0.00,,,0.00,WUHU216PEETBRO,2013-03-18 00:41:00,
2013-03-17 19:46:00,70.5,0.0,0.00,SSE,149,3.4,9.4,0,0.00,,,0.00,WUHU216PEETBRO,2013-03-18 00:46:00,
2013-03-17 19:51:00,69.8,0.0,0.00,WSW,237,4.9,8.5,0,0.00,,,0.00,WUHU216PEETBRO,2013-03-18 00:51:00,
2013-03-17 19:56:00,69.6,0.0,0.00,SSW,213,5.0,7.5,0,0.00,,,0.00,WUHU216PEETBRO,2013-03-18 00:56:00,
2013-03-17 20:01:00,68.2,0.0,0.00,SW,223,3.3,7.5,0,0.00,,,0.00,WUHU216PEETBRO,2013-03-18 01:01:00,
2013-03-17 20:06:00,69.1,0.0,0.00,WSW,241,3.7,7.5,0,0.00,,,0.00,WUHU216PEETBRO,2013-03-18 01:06:00,
2013-03-17 20:11:00,69.6,0.0,0.00,WSW,251,4.0,9.1,0,0.00,,,0.00,WUHU216PEETBRO,2013-03-18 01:11:00,
2013-03-17 20:16:00,69.0,0.0,0.00,West,262,5.7,11.6,0,0.00,,,0.00,WUHU216PEETBRO,2013-03-18 01:16:00,
2013-03-17 20:21:00,69.0,0.0,0.00,SW,232,6.6,11.6,0,0.00,,,0.00,WUHU216PEETBRO,2013-03-18 01:21:00,
2013-03-17 20:26:00,68.3,0.0,0.00,WSW,244,4.2,8.1,0,0.00,,,0.00,WUHU216PEETBRO,2013-03-18 01:26:00,
2013-03-17 20:31:00,68.1,0.0,0.00,WSW,252,3.8,7.3,0,0.00,,,0.00,WUHU216PEETBRO,2013-03-18 01:31:00,
2013-03-17 20:36:00,68.2,0.0,0.00,SSW,201,1.6,7.3,0,0.00,,,0.00,WUHU216PEETBRO,2013-03-18 01:36:00,
2013-03-17 20:41:00,67.9,0.0,0.00,SSW,200,5.1,7.1,0,0.00,,,0.00,WUHU216PEETBRO,2013-03-18 01:41:00,
2013-03-17 20:46:00,68.4,0.0,0.00,WSW,244,4.6,7.5,0,0.00,,,0.00,WUHU216PEETBRO,2013-03-18 01:46:00,
2013-03-17 20:51:00,67.9,0.0,0.00,WSW,258,4.2,8.8,0,0.00,,,0.00,WUHU216PEETBRO,2013-03-18 01:51:00,
2013-03-17 20:56:00,67.3,0.0,0.00,SW,221,4.0,8.8,0,0.00,,,0.00,WUHU216PEETBRO,2013-03-18 01:56:00,
2013-03-17 21:01:00,67.3,0.0,0.00,WSW,251,3.4,8.2,0,0.00,,,0.00,WUHU216PEETBRO,2013-03-18 02:01:00,
2013-03-17 21:06:00,67.7,0.0,0.00,West,271,3.4,7.6,0,0.00,,,0.00,WUHU216PEETBRO,2013-03-18 02:06:00,
2013-03-17 21:11:00,67.9,0.0,0.00,WSW,248,3.4,8.8,0,0.00,,,0.00,WUHU216PEETBRO,2013-03-18 02:11:00,
2013-03-17 21:16:00,67.9,0.0,0.00,WSW,251,3.7,8.9,0,0.00,,,0.00,WUHU216PEETBRO,2013-03-18 02:16:00,
2013-03-17 21:21:00,67.9,0.0,0.00,SW,225,5.0,8.9,0,0.00,,,0.00,WUHU216PEETBRO,2013-03-18 02:21:00,
2013-03-17 21:26:00,67.7,0.0,0.00,WSW,245,6.0,8.0,0,0.00,,,0.00,WUHU216PEETBRO,2013-03-18 02:26:00,
2013-03-17 21:31:00,67.7,0.0,0.00,WSW,258,5.1,7.5,0,0.00,,,0.00,WUHU216PEETBRO,2013-03-18 02:31:00,
2013-03-17 21:36:00,67.3,0.0,0.00,SW,232,5.4,7.7,0,0.00,,,0.00,WUHU216PEETBRO,2013-03-18 02:36:00,
2013-03-17 21:41:00,67.0,0.0,0.00,WSW,244,3.5,7.7,0,0.00,,,0.00,WUHU216PEETBRO,2013-03-18 02:41:00,
2013-03-17 21:46:00,67.3,0.0,0.00,West,272,1.9,7.4,0,0.00,,,0.00,WUHU216PEETBRO,2013-03-18 02:46:00,
2013-03-17 21:51:00,67.3,0.0,0.00,SW,225,5.7,7.0,0,0.00,,,0.00,WUHU216PEETBRO,2013-03-18 02:51:00,
2013-03-17 21:56:00,67.3,0.0,0.00,WSW,251,3.5,7.0,0,0.00,,,0.00,WUHU216PEETBRO,2013-03-18 02:56:00,
2013-03-17 22:01:00,67.0,0.0,0.00,SW,235,5.1,6.7,0,0.00,,,0.00,WUHU216PEETBRO,2013-03-18 03:01:00,
2013-03-17 22:06:00,67.0,0.0,0.00,SW,225,3.0,7.3,0,0.00,,,0.00,WUHU216PEETBRO,2013-03-18 03:06:00,
2013-03-17 22:11:00,66.4,0.0,0.00,SW,224,3.4,7.3,0,0.00,,,0.00,WUHU216PEETBRO,2013-03-18 03:11:00,
2013-03-17 22:16:00,67.0,0.0,0.00,South,180,3.5,7.0,0,0.00,,,0.00,WUHU216PEETBRO,2013-03-18 03:16:00,
2013-03-17 22:21:00,66.8,0.0,0.00,SSW,200,2.0,7.0,0,0.00,,,0.00,WUHU216PEETBRO,2013-03-18 03:21:00,
2013-03-17 22:26:00,66.8,0.0,0.00,SW,220,0.0,6.8,0,0.00,,,0.00,WUHU216PEETBRO,2013-03-18 03:26:00,
2013-03-17 22:31:00,66.1,0.0,0.00,SSW,201,5.7,5.7,0,0.00,,,0.00,WUHU216PEETBRO,2013-03-18 03:31:00,
2013-03-17 22:36:00,66.4,0.0,0.00,WSW,248,5.7,6.0,0,0.00,,,0.00,WUHU216PEETBRO,2013-03-18 03:36:00,
2013-03-17 22:41:00,66.1,0.0,0.00,WSW,252,4.0,6.0,0,0.00,,,0.00,WUHU216PEETBRO,2013-03-18 03:41:00,
2013-03-17 22:46:00,65.9,0.0,0.00,SSE,152,1.5,5.7,0,0.00,,,0.00,WUHU216PEETBRO,2013-03-18 03:46:00,
2013-03-17 22:51:00,65.6,0.0,0.00,SW,218,0.0,4.7,0,0.00,,,0.00,WUHU216PEETBRO,2013-03-18 03:51:00,
2013-03-17 22:56:00,65.6,0.0,0.00,SW,232,4.2,5.1,0,0.00,,,0.00,WUHU216PEETBRO,2013-03-18 03:56:00,
2013-03-17 23:00:00,66.1,0.0,0.00,SSW,199,3.5,6.8,0,0.00,,,0.00,WUHU216PEETBRO,2013-03-18 04:00:00,
2013-03-17 23:05:00,65.6,0.0,0.00,West,259,3.2,6.8,0,0.00,,,0.00,WUHU216PEETBRO,2013-03-18 04:05:00,
2013-03-17 23:10:00,65.0,0.0,0.00,WSW,244,3.6,6.3,0,0.00,,,0.00,WUHU216PEETBRO,2013-03-18 04:10:00,
2013-03-17 23:15:00,65.9,0.0,0.00,WSW,242,6.0,7.8,0,0.00,,,0.00,WUHU216PEETBRO,2013-03-18 04:15:00,
2013-03-17 23:20:00,65.0,0.0,0.00,WSW,247,3.7,7.8,0,0.00,,,0.00,WUHU216PEETBRO,2013-03-18 04:20:00,
2013-03-17 23:21:00,66.1,0.0,0.00,West,272,3.4,7.8,0,0.00,,,0.00,WUHU216PEETBRO,2013-03-18 04:21:00,
2013-03-17 23:26:00,65.7,0.0,0.00,SW,235,2.7,6.8,0,0.00,,,0.00,WUHU216PEETBRO,2013-03-18 04:26:00,
2013-03-17 23:31:00,65.0,0.0,0.00,West,275,2.2,6.2,0,0.00,,,0.00,WUHU216PEETBRO,2013-03-18 04:31:00,
2013-03-17 23:36:00,65.7,0.0,0.00,SW,232,2.3,5.8,0,0.00,,,0.00,WUHU216PEETBRO,2013-03-18 04:36:00,
2013-03-17 23:41:00,65.6,0.0,0.00,SSE,162,3.9,5.9,0,0.00,,,0.00,WUHU216PEETBRO,2013-03-18 04:41:00,
2013-03-17 23:46:00,65.6,0.0,0.00,SW,223,3.8,5.9,0,0.00,,,0.00,WUHU216PEETBRO,2013-03-18 04:46:00,
2013-03-17 23:51:00,65.9,0.0,0.00,SW,232,4.7,6.0,0,0.00,,,0.00,WUHU216PEETBRO,2013-03-18 04:51:00,
2013-03-17 23:56:00,65.6,0.0,0.00,SSW,204,1.9,6.4,0,0.00,,,0.00,WUHU216PEETBRO,2013-03-18 04:56:00,